Showing default

UKUBE 1, 40074

Orbit data source: Space-Track

UKUBE 1, 40074 is a payload satellite owned by UKSA (UK) in SSO that was launched on Tue, 08 Jul 2014 UTC via a SOYUZ-2-1B launch vehicle from the Tyuratam Missile And Space Complex (TTMTR). Payload-class satellites include a variety of spacecraft equipped with specific instruments for various scientific and technological missions. These include communications satellites like Starlink; space stations such as the ISS; scientific satellites like the Hubble; Earth observation satellites from companies like Planet Labs, Umbra, and HawkEye 360; GPS; miniature CubeSats for education and research; and military/defense satellites.

Loading next visibility...
Identifier
40074, 2014-037F
Orbit
SSO
Country
Flag of UKUK
Related business
Manufacturer
ClydeSpace
Mission
Operational Commercial Technology
Bus & Motor
CUBESAT 3U, Unknown motor
Mass
4 kg wet, 4 kg dry
Launch date (UTC)
2014-07-08 (12 years ago)
Launch vehicle
SOYUZ-2-1B
Launch site
Tyuratam Missile And Space Complex (TTMTR)
Object type
Payload
Rocket body
Debris
Shape & HBR
Box + 1 Pan, 0.2 m
Radar Cross Section
0.038 m², Medium (>0.1 m² and < 1m²)

Expand to show TLE details & history
Last TLE update: 19 hours ago

TLE from 19 hours ago
0 UKUBE 1
1 40074U 14037F   26163.27596000  .00009279  00000-0  52263-3 0  9995
2 40074  98.4233 166.0318 0002309 138.1037 222.0368 15.13478860647810
Epoch: 2026-06-12T06:37Z
TLE epoch observation values (Epoch: 2026-06-12T06:37:22.943Z)
Latitude
-0.00005°
Longitude
166.07847°
Altitude
529.835 km
Speed
7.597 km/s
True Right ascension
11h 04m 07s
True Declination
0° 00' 00"
Sunlit
Object was in daylight at epoch
Visualization orbit readout
Latitude
Unknown
Longitude
Unknown
Altitude
Unknown
Speed
Unknown
Apparent Right ascension
Unknown
Apparent Declination
Unknown
Sunlit
N/A
Visualization observer readout
Local Sidereal Time
12:20:08
Azimuth
Unknown
Elevation
Unknown
Doppler factor
Unknown
Orbital elements
Apogee altitude
524.215 km
Perigee altitude
521.028 km
Semi-major axis
6,900.758 km
Eccentricity
0.00023
Inclination
98.4233°
RAAN
166.0318°
Arg. of periapsis
138.1037°
True anomaly
222.01909°
Mean anomaly
222.0368°
Eccentric anomaly
222.02794°
Mean motion
3.78615 °/min
Orbital period
95.08 mins
BSTAR
0.00052263
Loading maneuver chart data...
Computing Atmospheric mass density...
Loading historical data...
Loading historical data...
Loading historical data...
Loading historical data...
Loading historical data...
Loading historical data...
Loading historical data...

Documentation

Showing up to 5 results
|